Location: Arrien
(43.3167°N, 0.1500°W)
Time: 08:03:16
(UTC+00:00)

Cosmos 1544 Rocket - Pass Details

Date: 29 May 2022
Orbit: 603 x 631 km, 82.5° (Epoch: 02 July)

Event Time Altitude Azimuth Distance (km) Brightness Sun altitude
Rises 01:55:11 0° 345° (NNW) 2,909 7.7 -19.7°
Reaches altitude 10° 01:57:29 10° 340° (NNW) 1,993 6.7 -19.5°
Maximum altitude 02:01:42 46° 267° (W) 836 3.9 -19.1°
Enters shadow 02:02:27 41° 237° (WSW) 894 3.9 -19.1°
